Date_and_time,latitude,longitude,wind_speed,RelWindDirFrom,WindDirFrom,air_pressure,air_temperature,relative_humidity,Temp,platform_speed_wrt_ground,air_pressure_at_mean_sea_level,platform_orientation
2019-11-15 23:50,50.63045,-96.9807733333333,18.0,20.0,115,995.84,-5.2,63,1.10,0.0,1024.52,360.0
2019-11-16 00:00,50.63045,-96.9807733333333,17.6,20.7,114,995.63,-5.1,65,1.10,0.0,1024.29,305.3
2019-11-16 00:10,50.63045,-96.980775,17.5,20.1,115,995.50,-5.0,65,1.11,0.0,1024.16,305.3
2019-11-16 00:20,50.63045,-96.9807683333333,17.4,20.4,112,995.41,-5.0,66,1.12,0.0,1024.05,305.3
2019-11-16 00:30,50.63045,-96.9807716666667,17.6,20.1,113,995.32,-5.0,66,1.12,0.0,1023.95,305.3
2019-11-16 00:40,50.6304516666667,-96.9807733333333,17.5,20.0,113,995.19,-4.9,66,1.12,0.0,1023.81,305.3
2019-11-16 00:50,50.6304516666667,-96.9807733333333,17.4,20.9,113,995.15,-4.9,66,1.12,0.0,1023.76,305.3
2019-11-16 01:00,50.63045,-96.98077,17.2,20.2,117,995.03,-4.9,66,1.13,0.0,1023.63,12.6
2019-11-16 01:10,50.6304483333333,-96.9807666666667,18.0,21.0,119,994.89,-4.9,65,1.14,0.0,1023.49,12.6
2019-11-16 01:20,50.6304333333333,-96.9807666666667,18.8,21.5,117,994.51,-4.8,67,1.14,0.0,1023.10,12.6
2019-11-16 01:30,50.6304466666667,-96.9807666666667,18.6,23.2,125,994.40,-4.7,67,1.15,0.0,1022.98,12.6
2019-11-16 01:40,50.6304516666667,-96.9807633333333,19.0,22.1,129,994.21,-4.6,67,1.15,0.0,1022.77,12.6
2019-11-16 01:50,50.63045,-96.980765,17.4,22.0,129,993.96,-4.5,68,1.16,0.0,1022.51,12.6
2019-11-16 02:00,50.6304366666667,-96.98076,16.5,21.8,135,993.79,-4.7,66,1.16,0.0,1022.33,143.4
2019-11-16 02:10,50.6304433333333,-96.9807583333333,17.7,23.3,132,993.61,-4.5,65,1.16,0.0,1022.13,143.4
2019-11-16 02:20,50.6304466666667,-96.98076,18.5,24.2,130,993.24,-4.4,65,1.15,0.0,1021.75,143.4
2019-11-16 02:30,50.63045,-96.9807616666667,18.6,23.3,135,993.04,-4.7,65,1.15,0.0,1021.55,143.4
2019-11-16 02:40,50.6304516666667,-96.9807616666667,18.2,23.9,132,992.82,-4.5,66,1.16,0.0,1021.32,143.4
2019-11-16 02:50,50.6304516666667,-96.9807633333333,16.6,21.2,134,992.78,-4.5,68,1.16,0.0,1021.29,143.4
2019-11-16 03:00,50.6304766666667,-96.9807866666667,17.5,22.4,139,992.62,-4.7,67,1.16,0.0,1021.12,332.8
2019-11-16 03:10,50.6304433333333,-96.98076,18.4,22.4,137,992.37,-4.6,66,1.17,0.0,1020.85,332.8
2019-11-16 03:20,50.6304466666667,-96.9807616666667,17.9,21.1,141,992.26,-4.7,67,1.17,0.0,1020.74,332.8
2019-11-16 03:30,50.630445,-96.9807616666667,18.2,21.2,142,992.09,-4.6,68,1.17,0.0,1020.55,332.8
2019-11-16 03:40,50.6304466666667,-96.9807633333333,18.5,22.5,144,991.83,-4.5,68,1.16,0.0,1020.28,332.8
2019-11-16 03:50,50.6304483333333,-96.980765,19.1,22.6,151,991.79,-4.4,67,1.16,0.0,1020.24,332.8
2019-11-16 04:00,50.63045,-96.980765,19.2,23.7,151,991.64,-4.4,67,1.15,0.0,1020.08,0.0
2019-11-16 04:10,50.63045,-96.980765,20.0,23.1,150,991.34,-4.3,66,1.14,0.0,1019.75,0.0
2019-11-16 04:20,50.6304516666667,-96.9807433333333,21.1,24.8,149,990.97,-4.2,65,1.14,0.0,1019.39,0.0
2019-11-16 04:30,50.6304533333333,-96.980755,19.4,23.2,150,990.85,-4.2,67,1.14,0.0,1019.26,0.0
2019-11-16 04:40,50.6304533333333,-96.980755,19.7,22.9,149,990.64,-4.2,67,1.14,0.0,1019.04,0.0
2019-11-16 04:50,50.6304533333333,-96.9807566666667,21.1,25.0,151,990.35,-4.1,65,1.14,0.0,1018.75,0.0
2019-11-16 05:00,50.6304533333333,-96.9807566666667,21.7,24.4,148,990.06,-4.0,66,1.14,0.0,1018.44,18.9
2019-11-16 05:10,50.6304533333333,-96.9807583333333,20.9,25.0,148,989.93,-4.0,66,1.13,0.0,1018.31,18.9
2019-11-16 05:20,50.63045,-96.9807633333333,20.0,22.7,146,989.76,-3.9,67,1.13,0.0,1018.12,18.9
2019-11-16 05:30,50.6304533333333,-96.9807566666667,19.2,22.2,149,989.70,-3.8,67,1.13,0.0,1018.05,18.9
2019-11-16 05:40,50.63045,-96.98076,19.0,22.8,150,989.55,-3.7,67,1.13,0.0,1017.88,18.9
2019-11-16 05:50,50.6304516666667,-96.9807633333333,19.4,23.8,153,989.41,-3.6,66,1.13,0.0,1017.74,18.9
2019-11-16 06:00,50.6304333333333,-96.9807516666667,19.8,25.0,153,989.26,-3.5,66,1.13,0.0,1017.57,152.9
2019-11-16 06:10,50.63044,-96.98076,18.5,23.0,154,989.23,-3.4,67,1.13,0.0,1017.53,152.9
2019-11-16 06:20,50.6304416666667,-96.9807633333333,17.6,22.0,156,989.26,-3.4,66,1.14,0.0,1017.56,152.9
2019-11-16 06:30,50.63044,-96.98077,17.1,20.3,154,989.07,-3.3,67,1.13,0.0,1017.36,152.9
2019-11-16 06:40,50.6304416666667,-96.9807716666667,17.3,21.9,155,988.85,-3.2,67,1.13,0.0,1017.13,152.9
2019-11-16 06:50,50.630445,-96.9807716666667,18.4,21.6,156,988.47,-3.1,67,1.13,0.0,1016.73,152.9
2019-11-16 07:00,50.630445,-96.9807683333333,18.3,22.7,157,988.29,-3.2,67,1.12,0.0,1016.53,360.0
2019-11-16 07:10,50.6304466666667,-96.9807666666667,17.9,22.2,156,988.03,-3.2,68,1.12,0.0,1016.27,360.0
2019-11-16 07:20,50.6304466666667,-96.9807666666667,18.1,21.6,155,987.75,-3.1,68,1.12,0.0,1015.97,360.0
2019-11-16 07:30,50.6304483333333,-96.9807666666667,18.0,22.8,155,987.52,-3.0,69,1.13,0.0,1015.72,360.0
2019-11-16 07:40,50.6304483333333,-96.9807666666667,17.5,21.7,156,987.31,-2.9,69,1.13,0.0,1015.50,360.0
2019-11-16 07:50,50.63045,-96.9807666666667,17.3,21.4,158,987.12,-2.9,69,1.13,0.0,1015.29,360.0
2019-11-16 08:00,50.63045,-96.9807666666667,15.8,19.5,158,987.02,-2.9,71,1.13,0.0,1015.18,270.0
2019-11-16 08:10,50.63045,-96.9807666666667,14.8,19.0,161,987.02,-2.8,71,1.13,0.0,1015.18,270.0
2019-11-16 08:20,50.63045,-96.9807583333333,15.1,19.0,157,986.74,-2.8,72,1.12,0.0,1014.89,270.0
2019-11-16 08:30,50.6304466666667,-96.98075,14.0,18.1,159,986.61,-2.8,73,1.13,0.0,1014.75,270.0
2019-11-16 08:40,50.6304483333333,-96.9807533333333,13.9,17.3,160,986.52,-2.7,74,1.13,0.0,1014.65,270.0
2019-11-16 08:50,50.63045,-96.9807583333333,14.3,17.7,160,986.33,-2.6,75,1.13,0.0,1014.45,270.0
2019-11-16 09:00,50.6304566666667,-96.9807616666667,15.4,18.4,163,986.19,-2.4,74,1.12,0.0,1014.29,332.4
2019-11-16 09:10,50.6304516666667,-96.9807633333333,13.9,16.4,161,986.06,-2.2,76,1.12,0.0,1014.14,332.4
2019-11-16 09:20,50.6304533333333,-96.9807633333333,14.9,17.9,153,985.72,-2.2,77,1.11,0.0,1013.79,332.4
2019-11-16 09:30,50.63047,-96.9807883333333,15.0,17.4,150,985.51,-2.2,76,1.11,0.0,1013.57,332.4
2019-11-16 09:40,50.63046,-96.9807766666667,14.5,17.6,150,985.22,-2.2,78,1.12,0.0,1013.27,332.4
2019-11-16 09:50,50.6304583333333,-96.9807816666667,15.8,18.8,149,984.97,-2.1,77,1.12,0.0,1013.01,332.4
2019-11-16 10:00,50.63046,-96.9807833333333,14.8,17.4,145,984.79,-2.1,79,1.12,0.0,1012.82,328.9
2019-11-16 10:10,50.6304633333333,-96.9807816666667,15.3,17.6,150,984.61,-2.2,80,1.12,0.0,1012.64,328.9
2019-11-16 10:20,50.6304633333333,-96.98078,14.3,18.0,155,984.49,-2.0,80,1.12,0.0,1012.50,328.9
2019-11-16 10:30,50.63046,-96.9807766666667,15.3,20.3,161,984.30,-1.6,78,1.09,0.0,1012.28,328.9
2019-11-16 10:40,50.6304616666667,-96.9807866666667,18.2,23.5,164,984.02,-1.2,74,1.09,0.0,1011.97,328.9
2019-11-16 10:50,50.6304633333333,-96.9807883333333,19.1,24.3,163,983.71,-1.1,72,1.10,0.0,1011.63,328.9
2019-11-16 11:00,50.6304583333333,-96.98079,20.6,24.9,162,983.50,-1.1,72,1.11,0.0,1011.41,286.8
2019-11-16 11:10,50.6304216666667,-96.9807833333333,16.9,22.2,155,983.55,-1.3,77,1.12,0.0,1011.47,286.8
2019-11-16 11:20,50.6304516666667,-96.9807783333333,16.2,20.3,155,983.45,-1.5,80,1.12,0.0,1011.38,286.8
2019-11-16 11:30,50.630455,-96.9807816666667,17.0,20.4,152,983.28,-1.6,81,1.12,0.0,1011.21,286.8
2019-11-16 11:40,50.6304566666667,-96.98078,17.2,22.3,159,983.18,-1.3,78,1.12,0.0,1011.08,286.8
2019-11-16 11:50,50.6304566666667,-96.9807783333333,16.6,20.0,159,982.97,-1.1,77,1.12,0.0,1010.86,286.8
2019-11-16 12:00,50.6304566666667,-96.9807783333333,15.8,21.0,160,982.91,-1.0,77,1.12,0.0,1010.79,270.0
2019-11-16 12:10,50.630455,-96.9807616666667,12.8,17.6,156,982.96,-1.2,81,1.11,0.0,1010.86,270.0
2019-11-16 12:20,50.6304533333333,-96.98076,12.9,16.9,155,982.89,-1.3,80,1.11,0.0,1010.77,270.0
2019-11-16 12:30,50.63047,-96.9808033333333,12.5,15.4,155,982.86,-1.4,81,1.11,0.0,1010.72,270.0
2019-11-16 12:40,50.630455,-96.9807683333333,12.4,15.6,160,982.98,-1.4,80,1.12,0.0,1010.83,270.0
2019-11-16 12:50,50.6304566666667,-96.98077,14.1,18.8,167,982.84,-0.9,74,1.13,0.0,1010.66,270.0
2019-11-16 13:00,50.630455,-96.9807683333333,16.6,21.9,169,982.61,-0.4,69,1.14,0.0,1010.42,113.6
2019-11-16 13:10,50.6304683333333,-96.9807783333333,16.3,20.0,167,982.54,-0.4,70,1.14,0.0,1010.35,113.6
2019-11-16 13:20,50.6304566666667,-96.980775,15.9,18.7,166,982.53,-0.4,71,1.14,0.0,1010.35,113.6
2019-11-16 13:30,50.6304516666667,-96.98076,15.3,19.9,166,982.43,-0.4,72,1.15,0.0,1010.23,113.6
2019-11-16 13:40,50.6304533333333,-96.9807583333333,14.9,17.9,166,982.33,-0.4,75,1.17,0.0,1010.11,113.6
2019-11-16 13:50,50.6304566666667,-96.9807583333333,13.8,16.1,169,982.29,-0.4,76,1.17,0.0,1010.07,113.6
2019-11-16 14:00,50.63046,-96.98076,13.7,17.5,169,982.18,-0.3,76,1.19,0.0,1009.96,90.0
2019-11-16 14:10,50.6304583333333,-96.9807616666667,13.3,16.3,166,982.13,-0.3,79,1.20,0.0,1009.91,90.0
2019-11-16 14:20,50.63046,-96.9807633333333,13.6,17.2,157,981.70,-0.4,81,1.20,0.0,1009.48,90.0
2019-11-16 14:30,50.63046,-96.980765,16.1,19.1,150,981.20,-0.5,83,1.20,0.0,1008.97,90.0
2019-11-16 14:40,50.6304616666667,-96.9807666666667,18.3,21.1,139,980.63,-0.9,86,1.20,0.0,1008.38,90.0
2019-11-16 14:50,50.6304616666667,-96.9807666666667,19.8,23.3,147,980.42,-0.9,85,1.20,0.0,1008.14,90.0
2019-11-16 15:00,50.63046,-96.9807666666667,17.3,21.7,150,980.63,-0.5,84,1.20,0.0,1008.34,66.4
2019-11-16 15:10,50.6304616666667,-96.9807683333333,17.9,22.3,152,980.44,-0.2,83,1.19,0.0,1008.13,66.4
2019-11-16 15:20,50.63046,-96.98077,18.4,22.8,157,980.22,-0.2,84,1.19,0.0,1007.90,66.4
2019-11-16 15:30,50.63046,-96.9807683333333,19.6,22.7,161,980.07,-0.0,84,1.19,0.0,1007.74,66.4
2019-11-16 15:40,50.63046,-96.9807683333333,18.4,23.4,156,979.71,0.0,84,1.19,0.0,1007.36,66.4
2019-11-16 15:50,50.63046,-96.98077,18.4,22.6,155,979.36,0.1,85,1.17,0.0,1007.00,66.4
2019-11-16 16:00,50.63046,-96.98077,19.8,24.7,154,979.02,0.1,85,1.15,0.0,1006.64,360.0
2019-11-16 16:10,50.6304583333333,-96.9807683333333,21.5,25.9,154,978.65,0.2,84,1.15,0.0,1006.27,360.0
2019-11-16 16:20,50.630465,-96.98077,20.3,24.9,162,978.91,0.3,84,1.14,0.0,1006.52,360.0
2019-11-16 16:30,50.6304616666667,-96.9807583333333,18.3,22.8,172,979.38,0.6,83,1.09,0.0,1007.02,360.0
2019-11-16 16:40,50.6304766666667,-96.9807866666667,16.0,20.8,169,979.37,0.7,83,1.07,0.0,1007.01,360.0
2019-11-16 16:50,50.6304683333333,-96.980785,14.9,19.2,171,979.31,1.1,81,1.07,0.0,1006.90,360.0
2019-11-16 17:00,50.6304616666667,-96.980775,14.0,18.5,179,979.53,1.4,80,1.08,0.0,1007.09,305.3
2019-11-16 17:10,50.6304583333333,-96.9807716666667,12.8,20.9,188,979.57,1.5,80,1.07,0.0,1007.13,305.3
2019-11-16 17:20,50.6304583333333,-96.98077,16.7,23.0,184,979.29,1.5,81,1.07,0.0,1006.83,305.3
2019-11-16 17:30,50.63046,-96.9807716666667,17.2,25.2,179,979.07,1.5,81,1.07,0.0,1006.60,305.3
2019-11-16 17:40,50.63046,-96.9807733333333,17.6,22.7,173,978.76,1.6,82,1.06,0.0,1006.28,305.3
2019-11-16 17:50,50.63046,-96.9807733333333,16.2,22.7,175,978.52,1.7,82,1.06,0.0,1006.03,305.3
2019-11-16 18:00,50.6304733333333,-96.9807716666667,16.0,20.7,173,978.21,1.9,82,1.04,0.0,1005.70,336.5
2019-11-16 18:10,50.6304566666667,-96.9807733333333,19.4,26.4,181,978.05,2.2,81,1.02,0.0,1005.51,336.5
2019-11-16 18:20,50.6304516666667,-96.980775,16.6,23.1,185,978.11,2.3,81,1.02,0.0,1005.55,336.5
2019-11-16 18:30,50.6304566666667,-96.9807766666667,17.7,24.0,183,977.92,2.7,79,1.02,0.0,1005.33,336.5
2019-11-16 18:40,50.6304566666667,-96.98078,17.3,22.6,182,977.84,2.9,79,1.01,0.0,1005.22,336.5
2019-11-16 18:50,50.63045,-96.9807716666667,16.7,21.3,183,977.62,3.0,79,1.01,0.0,1004.97,336.5
2019-11-16 19:00,50.6304533333333,-96.9807716666667,16.4,23.0,184,977.51,2.8,80,1.02,0.0,1004.86,192.6
2019-11-16 19:10,50.630455,-96.9807666666667,15.0,21.4,186,977.55,2.9,80,1.02,0.0,1004.90,192.6
2019-11-16 19:20,50.630455,-96.980765,15.8,22.2,190,977.70,2.8,80,1.02,0.0,1005.06,192.6
2019-11-16 19:30,50.6304533333333,-96.9807633333333,15.2,19.8,187,977.73,2.6,81,1.03,0.0,1005.10,192.6
2019-11-16 19:40,50.6304533333333,-96.980765,14.4,19.8,187,977.74,2.7,82,1.04,0.0,1005.10,192.6
2019-11-16 19:50,50.630455,-96.980765,14.8,18.7,184,977.61,2.8,81,1.06,0.0,1004.94,192.6
2019-11-16 20:00,50.630455,-96.980765,13.7,18.0,193,977.73,3.2,79,1.07,0.0,1005.03,360.0
2019-11-16 20:10,50.6304533333333,-96.980765,13.6,19.8,195,977.97,3.2,79,1.06,0.0,1005.27,360.0
2019-11-16 20:20,50.6304516666667,-96.980765,13.5,18.9,186,977.84,3.1,80,1.07,0.0,1005.12,360.0
2019-11-16 20:30,50.6304533333333,-96.980765,12.4,16.5,187,977.85,3.1,80,1.08,0.0,1005.12,360.0
2019-11-16 20:40,50.6304533333333,-96.9807633333333,11.6,15.0,189,977.82,3.1,81,1.08,0.0,1005.10,360.0
2019-11-16 20:50,50.6304533333333,-96.9807633333333,13.2,17.0,186,977.73,3.0,81,1.08,0.0,1005.01,360.0
2019-11-16 21:00,50.6304533333333,-96.9807616666667,12.1,17.0,189,977.81,3.1,81,1.09,0.0,1005.09,165.5
2019-11-16 21:10,50.6304533333333,-96.9807616666667,10.4,14.8,198,977.84,3.3,81,1.10,0.0,1005.11,165.5
2019-11-16 21:20,50.6304783333333,-96.9807733333333,10.0,13.7,194,978.00,3.2,81,1.10,0.0,1005.29,165.5
2019-11-16 21:30,50.6304666666667,-96.98077,10.7,13.7,194,978.04,3.3,81,1.11,0.0,1005.32,165.5
2019-11-16 21:40,50.630465,-96.9807716666667,8.4,11.5,195,978.14,3.3,81,1.11,0.0,1005.42,165.5
2019-11-16 21:50,50.6304616666667,-96.9807733333333,8.4,11.5,193,978.12,3.2,82,1.11,0.0,1005.39,165.5
2019-11-16 22:00,50.6304616666667,-96.9807716666667,7.8,10.7,191,977.96,3.2,82,1.12,0.0,1005.22,360.0
2019-11-16 22:10,50.630465,-96.9807666666667,7.9,10.4,194,978.11,3.2,83,1.13,0.0,1005.38,360.0
2019-11-16 22:20,50.63046,-96.9807633333333,7.4,10.7,196,978.22,3.2,83,1.15,0.0,1005.49,360.0
2019-11-16 22:30,50.6304583333333,-96.9807633333333,6.5,9.4,198,978.33,3.3,83,1.16,0.0,1005.60,360.0
2019-11-16 22:40,50.6304583333333,-96.9807633333333,5.8,7.8,198,978.30,3.2,84,1.18,0.0,1005.58,360.0
2019-11-16 22:50,50.6304566666667,-96.9807633333333,5.7,7.8,207,978.31,3.3,84,1.19,0.0,1005.59,360.0
2019-11-16 23:00,50.6304583333333,-96.980765,5.2,8.0,215,978.25,3.3,85,1.20,0.0,1005.51,360.0
2019-11-16 23:10,50.6304583333333,-96.9807666666667,4.3,5.8,223,978.28,3.3,85,1.21,0.0,1005.55,360.0
2019-11-16 23:20,50.6304583333333,-96.9807666666667,4.7,6.0,215,978.45,3.2,85,1.22,0.0,1005.72,360.0
2019-11-16 23:30,50.6304583333333,-96.9807666666667,4.8,7.2,218,978.61,3.1,86,1.23,0.0,1005.89,360.0
